HIMAWARI-9

Last updated on Thu Sep 10 2026 00:02:38 GMT+0000 (Coordinated Universal Time)

1 41836U 16064A 26252.54215478 -.00000297 00000+0 00000+0 0 9999 2 41836 0.0404 282.6179 0001429 286.2268 115.6459 1.00268826 36055
UTC large
Height (km)
Speed (km/s)
/
Latitude / Longitude
Inclination (degrees)
Orbital Period (minutes)
Azimuth
Elevation
Range (km)
Doppler Factor

Next 0 passes for location: London (51.5072 / 0.1276)

No passes found over London.
HIMAWARI-9